Location: Borovka
(49.7741°N, 14.5280°E)
Time: 01:13:00
(UTC+00:00)

BlueWalker 3 - Pass Details

Date: 22 January 2026
Orbit: 451 x 461 km, 53.2° (Epoch: 13 February)

Event Time Altitude Azimuth Distance (km) Brightness Sun altitude
Rises 18:23:14 0° 241° (WSW) 2,450 6.4 -26.0°
Reaches altitude 10° 18:25:21 10° 239° (WSW) 1,579 5.2 -26.3°
Enters shadow 18:27:03 26° 236° (SW) 917 3.7 -26.6°
